Year,Month,Day,Hour,Minute,Value (Times are PST for temperature in C)
2015,06,27,00,00,18.70
2015,06,27,00,01,18.70
2015,06,27,00,02,18.70
2015,06,27,00,03,18.70
2015,06,27,00,04,18.60
2015,06,27,00,05,18.60
2015,06,27,00,06,18.50
2015,06,27,00,07,18.50
2015,06,27,00,08,18.40
2015,06,27,00,09,18.30
2015,06,27,00,10,18.30
2015,06,27,00,11,18.20
2015,06,27,00,12,18.10
2015,06,27,00,13,18.10
2015,06,27,00,14,18.00
2015,06,27,00,15,17.90
2015,06,27,00,16,17.80
2015,06,27,00,17,17.80
2015,06,27,00,18,17.70
2015,06,27,00,19,17.70
2015,06,27,00,20,17.60
2015,06,27,00,21,17.50
2015,06,27,00,22,17.50
2015,06,27,00,23,17.40
2015,06,27,00,24,17.30
2015,06,27,00,25,17.30
2015,06,27,00,26,17.30
2015,06,27,00,27,17.30
2015,06,27,00,28,17.20
2015,06,27,00,29,17.20
2015,06,27,00,30,17.20
2015,06,27,00,31,17.20
2015,06,27,00,32,17.20
2015,06,27,00,33,17.10
2015,06,27,00,34,17.10
2015,06,27,00,35,17.10
2015,06,27,00,36,17.10
2015,06,27,00,37,17.10
2015,06,27,00,38,17.10
2015,06,27,00,39,17.20
2015,06,27,00,40,17.20
2015,06,27,00,41,17.20
2015,06,27,00,42,17.20
2015,06,27,00,43,17.20
2015,06,27,00,44,17.20
2015,06,27,00,45,17.20
2015,06,27,00,46,17.20
2015,06,27,00,47,17.20
2015,06,27,00,48,17.20
2015,06,27,00,49,17.20
2015,06,27,00,50,17.20
2015,06,27,00,51,17.30
2015,06,27,00,52,17.30
2015,06,27,00,53,17.30
2015,06,27,00,54,17.30
2015,06,27,00,55,17.30
2015,06,27,00,56,17.30
2015,06,27,00,57,17.30
2015,06,27,00,58,17.30
2015,06,27,00,59,17.40
2015,06,27,01,00,17.40
2015,06,27,01,01,17.40
2015,06,27,01,02,17.40
2015,06,27,01,03,17.40
2015,06,27,01,04,17.40
2015,06,27,01,05,17.40
2015,06,27,01,06,17.40
2015,06,27,01,07,17.40
2015,06,27,01,08,17.40
2015,06,27,01,09,17.40
2015,06,27,01,10,17.30
2015,06,27,01,11,17.30
2015,06,27,01,12,17.30
2015,06,27,01,13,17.30
2015,06,27,01,14,17.30
2015,06,27,01,15,17.30
2015,06,27,01,16,17.30
2015,06,27,01,17,17.20
2015,06,27,01,18,17.20
2015,06,27,01,19,17.20
2015,06,27,01,20,17.20
2015,06,27,01,21,17.10
2015,06,27,01,22,17.10
2015,06,27,01,23,17.10
2015,06,27,01,24,17.00
2015,06,27,01,25,17.00
2015,06,27,01,26,17.00
2015,06,27,01,27,17.00
2015,06,27,01,28,17.00
2015,06,27,01,29,17.00
2015,06,27,01,30,16.90
2015,06,27,01,31,16.90
2015,06,27,01,32,16.90
2015,06,27,01,33,16.90
2015,06,27,01,34,16.90
2015,06,27,01,35,16.90
2015,06,27,01,36,16.90
2015,06,27,01,37,16.90
2015,06,27,01,38,16.90
2015,06,27,01,39,16.90
2015,06,27,01,40,17.00
2015,06,27,01,41,17.00
2015,06,27,01,42,17.00
2015,06,27,01,43,17.10
2015,06,27,01,44,17.10
2015,06,27,01,45,17.10
2015,06,27,01,46,17.20
2015,06,27,01,47,17.20
2015,06,27,01,48,17.30
2015,06,27,01,49,17.30
2015,06,27,01,50,17.30
2015,06,27,01,51,17.30
2015,06,27,01,52,17.40
2015,06,27,01,53,17.30
2015,06,27,01,54,17.30
2015,06,27,01,55,17.30
2015,06,27,01,56,17.30
2015,06,27,01,57,17.30
2015,06,27,01,58,17.30
2015,06,27,01,59,17.30
2015,06,27,02,00,17.30
2015,06,27,02,01,17.30
2015,06,27,02,02,17.40
2015,06,27,02,03,17.40
2015,06,27,02,04,17.40
2015,06,27,02,05,17.40
2015,06,27,02,06,17.50
2015,06,27,02,07,17.60
2015,06,27,02,08,17.60
2015,06,27,02,09,17.70
2015,06,27,02,10,17.70
2015,06,27,02,11,17.80
2015,06,27,02,12,17.80
2015,06,27,02,13,17.80
2015,06,27,02,14,17.90
2015,06,27,02,15,17.90
2015,06,27,02,16,17.90
2015,06,27,02,17,17.90
2015,06,27,02,18,17.90
2015,06,27,02,19,17.90
2015,06,27,02,20,17.90
2015,06,27,02,21,17.90
2015,06,27,02,22,17.90
2015,06,27,02,23,17.90
2015,06,27,02,24,17.90
2015,06,27,02,25,18.00
2015,06,27,02,26,18.00
2015,06,27,02,27,18.00
2015,06,27,02,28,18.10
2015,06,27,02,29,18.10
2015,06,27,02,30,18.10
2015,06,27,02,31,18.20
2015,06,27,02,32,18.20
2015,06,27,02,33,18.20
2015,06,27,02,34,18.20
2015,06,27,02,35,18.20
2015,06,27,02,36,18.10
2015,06,27,02,37,18.10
2015,06,27,02,38,18.10
2015,06,27,02,39,18.00
2015,06,27,02,40,18.00
2015,06,27,02,41,17.90
2015,06,27,02,42,17.90
2015,06,27,02,43,17.90
2015,06,27,02,44,17.80
2015,06,27,02,45,17.80
2015,06,27,02,46,17.70
2015,06,27,02,47,17.70
2015,06,27,02,48,17.60
2015,06,27,02,49,17.60
2015,06,27,02,50,17.50
2015,06,27,02,51,17.50
2015,06,27,02,52,17.40
2015,06,27,02,53,17.40
2015,06,27,02,54,17.30
2015,06,27,02,55,17.30
2015,06,27,02,56,17.30
2015,06,27,02,57,17.20
2015,06,27,02,58,17.20
2015,06,27,02,59,17.20
2015,06,27,03,00,17.10
2015,06,27,03,01,17.10
2015,06,27,03,02,17.10
2015,06,27,03,03,17.10
2015,06,27,03,04,17.10
2015,06,27,03,05,17.00
2015,06,27,03,06,17.00
2015,06,27,03,07,17.00
2015,06,27,03,08,17.00
2015,06,27,03,09,17.00
2015,06,27,03,10,17.00
2015,06,27,03,11,17.00
2015,06,27,03,12,16.90
2015,06,27,03,13,16.90
2015,06,27,03,14,16.90
2015,06,27,03,15,16.90
2015,06,27,03,16,16.90
2015,06,27,03,17,16.80
2015,06,27,03,18,16.80
2015,06,27,03,19,16.70
2015,06,27,03,20,16.70
2015,06,27,03,21,16.60
2015,06,27,03,22,16.50
2015,06,27,03,23,16.40
2015,06,27,03,24,16.40
2015,06,27,03,25,16.30
2015,06,27,03,26,16.30
2015,06,27,03,27,16.20
2015,06,27,03,28,16.10
2015,06,27,03,29,16.10
2015,06,27,03,30,16.10
2015,06,27,03,31,16.00
2015,06,27,03,32,16.00
2015,06,27,03,33,16.00
2015,06,27,03,34,15.90
2015,06,27,03,35,15.90
2015,06,27,03,36,15.90
2015,06,27,03,37,15.90
2015,06,27,03,38,15.90
2015,06,27,03,39,15.90
2015,06,27,03,40,15.80
2015,06,27,03,41,15.80
2015,06,27,03,42,15.80
2015,06,27,03,43,15.80
2015,06,27,03,44,15.80
2015,06,27,03,45,15.80
2015,06,27,03,46,15.80
2015,06,27,03,47,15.80
2015,06,27,03,48,15.80
2015,06,27,03,49,15.80
2015,06,27,03,50,15.80
2015,06,27,03,51,15.80
2015,06,27,03,52,15.80
2015,06,27,03,53,15.80
2015,06,27,03,54,15.80
2015,06,27,03,55,15.90
2015,06,27,03,56,15.90
2015,06,27,03,57,15.90
2015,06,27,03,58,15.90
2015,06,27,03,59,15.90
2015,06,27,04,00,16.00
2015,06,27,04,01,16.00
2015,06,27,04,02,16.10
2015,06,27,04,03,16.10
2015,06,27,04,04,16.20
2015,06,27,04,05,16.20
2015,06,27,04,06,16.20
2015,06,27,04,07,16.30
2015,06,27,04,08,16.30
2015,06,27,04,09,16.30
2015,06,27,04,10,16.30
2015,06,27,04,11,16.30
2015,06,27,04,12,16.40
2015,06,27,04,13,16.40
2015,06,27,04,14,16.40
2015,06,27,04,15,16.50
2015,06,27,04,16,16.50
2015,06,27,04,17,16.60
2015,06,27,04,18,16.60
2015,06,27,04,19,16.60
2015,06,27,04,20,16.70
2015,06,27,04,21,16.70
2015,06,27,04,22,16.70
2015,06,27,04,23,16.70
2015,06,27,04,24,16.70
2015,06,27,04,25,16.70
2015,06,27,04,26,16.70
2015,06,27,04,27,16.70
2015,06,27,04,28,16.70
2015,06,27,04,29,16.80
2015,06,27,04,30,16.80
2015,06,27,04,31,16.80
2015,06,27,04,32,16.80
2015,06,27,04,33,16.80
2015,06,27,04,34,16.80
2015,06,27,04,35,16.70
2015,06,27,04,36,16.70
2015,06,27,04,37,16.70
2015,06,27,04,38,16.70
2015,06,27,04,39,16.70
2015,06,27,04,40,16.60
2015,06,27,04,41,16.60
2015,06,27,04,42,16.60
2015,06,27,04,43,16.60
2015,06,27,04,44,16.60
2015,06,27,04,45,16.60
2015,06,27,04,46,16.60
2015,06,27,04,47,16.60
2015,06,27,04,48,16.60
2015,06,27,04,49,16.60
2015,06,27,04,50,16.60
2015,06,27,04,51,16.60
2015,06,27,04,52,16.60
2015,06,27,04,53,16.60
2015,06,27,04,54,16.50
2015,06,27,04,55,16.50
2015,06,27,04,56,16.50
2015,06,27,04,57,16.50
2015,06,27,04,58,16.50
2015,06,27,04,59,16.40
2015,06,27,05,00,16.40
2015,06,27,05,01,16.40
2015,06,27,05,02,16.40
2015,06,27,05,03,16.40
2015,06,27,05,04,16.40
2015,06,27,05,05,16.50
2015,06,27,05,06,16.50
2015,06,27,05,07,16.50
2015,06,27,05,08,16.50
2015,06,27,05,09,16.50
2015,06,27,05,10,16.50
2015,06,27,05,11,16.40
2015,06,27,05,12,16.40
2015,06,27,05,13,16.30
2015,06,27,05,14,16.20
2015,06,27,05,15,16.00
2015,06,27,05,16,15.80
2015,06,27,05,17,15.70
2015,06,27,05,18,15.60
2015,06,27,05,19,15.50
2015,06,27,05,20,15.40
2015,06,27,05,21,15.30
2015,06,27,05,22,15.10
2015,06,27,05,23,15.00
2015,06,27,05,24,15.00
2015,06,27,05,25,14.90
2015,06,27,05,26,14.80
2015,06,27,05,27,14.80
2015,06,27,05,28,14.70
2015,06,27,05,29,14.60
2015,06,27,05,30,14.60
2015,06,27,05,31,14.50
2015,06,27,05,32,14.40
2015,06,27,05,33,14.40
2015,06,27,05,34,14.40
2015,06,27,05,35,14.40
2015,06,27,05,36,14.30
2015,06,27,05,37,14.30
2015,06,27,05,38,14.30
2015,06,27,05,39,14.30
2015,06,27,05,40,14.30
2015,06,27,05,41,14.30
2015,06,27,05,42,14.30
2015,06,27,05,43,14.20
2015,06,27,05,44,14.20
2015,06,27,05,45,14.20
2015,06,27,05,46,14.10
2015,06,27,05,47,14.10
2015,06,27,05,48,14.00
2015,06,27,05,49,14.00
2015,06,27,05,50,13.90
2015,06,27,05,51,13.90
2015,06,27,05,52,13.80
2015,06,27,05,53,13.80
2015,06,27,05,54,13.80
2015,06,27,05,55,13.80
2015,06,27,05,56,13.70
2015,06,27,05,57,13.70
2015,06,27,05,58,13.70
2015,06,27,05,59,13.70
2015,06,27,06,00,13.70
2015,06,27,06,01,13.70
2015,06,27,06,02,13.70
2015,06,27,06,03,13.70
2015,06,27,06,04,13.70
2015,06,27,06,05,13.70
2015,06,27,06,06,13.70
2015,06,27,06,07,13.70
2015,06,27,06,08,13.70
2015,06,27,06,09,13.70
2015,06,27,06,10,13.70
2015,06,27,06,11,13.80
2015,06,27,06,12,13.80
2015,06,27,06,13,13.80
2015,06,27,06,14,13.80
2015,06,27,06,15,13.80
2015,06,27,06,16,13.90
2015,06,27,06,17,13.90
2015,06,27,06,18,14.00
2015,06,27,06,19,14.10
2015,06,27,06,20,14.10
2015,06,27,06,21,14.20
2015,06,27,06,22,14.20
2015,06,27,06,23,14.30
2015,06,27,06,24,14.30
2015,06,27,06,25,14.30
2015,06,27,06,26,14.40
2015,06,27,06,27,14.40
2015,06,27,06,28,14.50
2015,06,27,06,29,14.60
2015,06,27,06,30,14.60
2015,06,27,06,31,14.70
2015,06,27,06,32,14.70
2015,06,27,06,33,14.80
2015,06,27,06,34,14.90
2015,06,27,06,35,14.90
2015,06,27,06,36,14.90
2015,06,27,06,37,14.90
2015,06,27,06,38,15.00
2015,06,27,06,39,15.00
2015,06,27,06,40,14.90
2015,06,27,06,41,14.90
2015,06,27,06,42,14.90
2015,06,27,06,43,14.90
2015,06,27,06,44,14.90
2015,06,27,06,45,14.90
2015,06,27,06,46,14.90
2015,06,27,06,47,14.90
2015,06,27,06,48,15.00
2015,06,27,06,49,15.00
2015,06,27,06,50,15.00
2015,06,27,06,51,15.10
2015,06,27,06,52,15.20
2015,06,27,06,53,15.20
2015,06,27,06,54,15.30
2015,06,27,06,55,15.30
2015,06,27,06,56,15.40
2015,06,27,06,57,15.40
2015,06,27,06,58,15.50
2015,06,27,06,59,15.50
2015,06,27,07,00,15.60
2015,06,27,07,01,15.60
2015,06,27,07,02,15.60
2015,06,27,07,03,15.70
2015,06,27,07,04,15.70
2015,06,27,07,05,15.70
2015,06,27,07,06,15.80
2015,06,27,07,07,15.80
2015,06,27,07,08,15.90
2015,06,27,07,09,15.90
2015,06,27,07,10,16.00
2015,06,27,07,11,16.10
2015,06,27,07,12,16.10
2015,06,27,07,13,16.20
2015,06,27,07,14,16.30
2015,06,27,07,15,16.40
2015,06,27,07,16,16.50
2015,06,27,07,17,16.50
2015,06,27,07,18,16.70
2015,06,27,07,19,16.80
2015,06,27,07,20,17.00
2015,06,27,07,21,17.10
2015,06,27,07,22,17.20
2015,06,27,07,23,17.30
2015,06,27,07,24,17.40
2015,06,27,07,25,17.50
2015,06,27,07,26,17.60
2015,06,27,07,27,17.70
2015,06,27,07,28,17.80
2015,06,27,07,29,18.00
2015,06,27,07,30,18.10
2015,06,27,07,31,18.20
2015,06,27,07,32,18.30
2015,06,27,07,33,18.50
2015,06,27,07,34,18.60
2015,06,27,07,35,18.80
2015,06,27,07,36,18.90
2015,06,27,07,37,19.00
2015,06,27,07,38,19.10
2015,06,27,07,39,19.20
2015,06,27,07,40,19.30
2015,06,27,07,41,19.30
2015,06,27,07,42,19.30
2015,06,27,07,43,19.40
2015,06,27,07,44,19.40
2015,06,27,07,45,19.30
2015,06,27,07,46,19.30
2015,06,27,07,47,19.20
2015,06,27,07,48,19.20
2015,06,27,07,49,19.10
2015,06,27,07,50,19.10
2015,06,27,07,51,19.00
2015,06,27,07,52,19.00
2015,06,27,07,53,19.00
2015,06,27,07,54,18.90
2015,06,27,07,55,18.90
2015,06,27,07,56,18.90
2015,06,27,07,57,18.80
2015,06,27,07,58,18.80
2015,06,27,07,59,18.80
2015,06,27,08,00,18.80
2015,06,27,08,01,18.80
2015,06,27,08,02,18.80
2015,06,27,08,03,18.80
2015,06,27,08,04,18.80
2015,06,27,08,05,18.70
2015,06,27,08,06,18.70
2015,06,27,08,07,18.70
2015,06,27,08,08,18.60
2015,06,27,08,09,18.60
2015,06,27,08,10,18.60
2015,06,27,08,11,18.60
2015,06,27,08,12,18.60
2015,06,27,08,13,18.60
2015,06,27,08,14,18.50
2015,06,27,08,15,18.50
2015,06,27,08,16,18.40
2015,06,27,08,17,18.40
2015,06,27,08,18,18.30
2015,06,27,08,19,18.30
2015,06,27,08,20,18.30
2015,06,27,08,21,18.20
2015,06,27,08,22,18.20
2015,06,27,08,23,18.20
2015,06,27,08,24,18.20
2015,06,27,08,25,18.30
2015,06,27,08,26,18.30
2015,06,27,08,27,18.30
2015,06,27,08,28,18.30
2015,06,27,08,29,18.30
2015,06,27,08,30,18.40
2015,06,27,08,31,18.40
2015,06,27,08,32,18.40
2015,06,27,08,33,18.40
2015,06,27,08,34,18.50
2015,06,27,08,35,18.50
2015,06,27,08,36,18.50
2015,06,27,08,37,18.50
2015,06,27,08,38,18.50
2015,06,27,08,39,18.50
2015,06,27,08,40,18.50
2015,06,27,08,41,18.60
2015,06,27,08,42,18.60
2015,06,27,08,43,18.70
2015,06,27,08,44,18.80
2015,06,27,08,45,18.90
2015,06,27,08,46,19.00
2015,06,27,08,47,19.10
2015,06,27,08,48,19.20
2015,06,27,08,49,19.30
2015,06,27,08,50,19.50
2015,06,27,08,51,19.70
2015,06,27,08,52,19.80
2015,06,27,08,53,19.90
2015,06,27,08,54,20.00
2015,06,27,08,55,20.00
2015,06,27,08,56,20.10
2015,06,27,08,57,20.10
2015,06,27,08,58,20.10
2015,06,27,08,59,20.10
2015,06,27,09,00,20.10
2015,06,27,09,01,20.00
2015,06,27,09,02,20.00
2015,06,27,09,03,19.90
2015,06,27,09,04,19.80
2015,06,27,09,05,19.80
2015,06,27,09,06,19.80
2015,06,27,09,07,19.80
2015,06,27,09,08,19.80
2015,06,27,09,09,19.80
2015,06,27,09,10,19.90
2015,06,27,09,11,19.90
2015,06,27,09,12,19.90
2015,06,27,09,13,19.80
2015,06,27,09,14,19.80
2015,06,27,09,15,19.70
2015,06,27,09,16,19.60
2015,06,27,09,17,19.60
2015,06,27,09,18,19.50
2015,06,27,09,19,19.50
2015,06,27,09,20,19.60
2015,06,27,09,21,19.60
2015,06,27,09,22,19.60
2015,06,27,09,23,19.60
2015,06,27,09,24,19.50
2015,06,27,09,25,19.40
2015,06,27,09,26,19.30
2015,06,27,09,27,19.20
2015,06,27,09,28,19.00
2015,06,27,09,29,18.90
2015,06,27,09,30,18.80
2015,06,27,09,31,18.50
2015,06,27,09,32,18.20
2015,06,27,09,33,17.90
2015,06,27,09,34,17.70
2015,06,27,09,35,17.40
2015,06,27,09,36,17.20
2015,06,27,09,37,17.10
2015,06,27,09,38,17.00
2015,06,27,09,39,16.90
2015,06,27,09,40,16.80
2015,06,27,09,41,16.80
2015,06,27,09,42,16.80
2015,06,27,09,43,16.80
2015,06,27,09,44,16.90
2015,06,27,09,45,16.90
2015,06,27,09,46,16.90
2015,06,27,09,47,16.80
2015,06,27,09,48,16.50
2015,06,27,09,49,16.30
2015,06,27,09,50,16.10
2015,06,27,09,51,15.90
2015,06,27,09,52,15.70
2015,06,27,09,53,15.50
2015,06,27,09,54,15.40
2015,06,27,09,55,15.30
2015,06,27,09,56,15.30
2015,06,27,09,57,15.20
2015,06,27,09,58,15.10
2015,06,27,09,59,15.10
2015,06,27,10,00,15.00
2015,06,27,10,01,15.00
2015,06,27,10,02,14.90
2015,06,27,10,03,14.90
2015,06,27,10,04,14.90
2015,06,27,10,05,15.00
2015,06,27,10,06,15.00
2015,06,27,10,07,15.10
2015,06,27,10,08,15.20
2015,06,27,10,09,15.30
2015,06,27,10,10,15.40
2015,06,27,10,11,15.60
2015,06,27,10,12,15.80
2015,06,27,10,13,15.90
2015,06,27,10,14,16.00
2015,06,27,10,15,16.10
2015,06,27,10,16,16.20
2015,06,27,10,17,16.30
2015,06,27,10,18,16.40
2015,06,27,10,19,16.50
2015,06,27,10,20,16.70
2015,06,27,10,21,16.80
2015,06,27,10,22,17.00
2015,06,27,10,23,17.10
2015,06,27,10,24,17.20
2015,06,27,10,25,17.30
2015,06,27,10,26,17.50
2015,06,27,10,27,17.60
2015,06,27,10,28,17.80
2015,06,27,10,29,17.90
2015,06,27,10,30,18.10
2015,06,27,10,31,18.30
2015,06,27,10,32,18.50
2015,06,27,10,33,18.70
2015,06,27,10,34,18.80
2015,06,27,10,35,18.90
2015,06,27,10,36,19.00
2015,06,27,10,37,19.20
2015,06,27,10,38,19.30
2015,06,27,10,39,19.50
2015,06,27,10,40,19.60
2015,06,27,10,41,19.80
2015,06,27,10,42,19.90
2015,06,27,10,43,20.10
2015,06,27,10,44,20.20
2015,06,27,10,45,20.30
2015,06,27,10,46,20.40
2015,06,27,10,47,20.50
2015,06,27,10,48,20.70
2015,06,27,10,49,20.80
2015,06,27,10,50,20.90
2015,06,27,10,51,21.10
2015,06,27,10,52,21.20
2015,06,27,10,53,21.40
2015,06,27,10,54,21.50
2015,06,27,10,55,21.70
2015,06,27,10,56,21.90
2015,06,27,10,57,22.10
2015,06,27,10,58,22.30
2015,06,27,10,59,22.40
2015,06,27,11,00,22.60
2015,06,27,11,01,22.70
2015,06,27,11,02,22.80
2015,06,27,11,03,23.00
2015,06,27,11,04,23.00
2015,06,27,11,05,23.10
2015,06,27,11,06,23.10
2015,06,27,11,07,23.10
2015,06,27,11,08,23.10
2015,06,27,11,09,23.20
2015,06,27,11,10,23.30
2015,06,27,11,11,23.40
2015,06,27,11,12,23.50
2015,06,27,11,13,23.60
2015,06,27,11,14,23.70
2015,06,27,11,15,23.80
2015,06,27,11,16,24.00
2015,06,27,11,17,24.10
2015,06,27,11,18,24.20
2015,06,27,11,19,24.30
2015,06,27,11,20,24.50
2015,06,27,11,21,24.50
2015,06,27,11,22,24.60
2015,06,27,11,23,24.70
2015,06,27,11,24,24.90
2015,06,27,11,25,24.90
2015,06,27,11,26,24.90
2015,06,27,11,27,25.00
2015,06,27,11,28,25.00
2015,06,27,11,29,25.00
2015,06,27,11,30,24.90
2015,06,27,11,31,24.70
2015,06,27,11,32,24.30
2015,06,27,11,33,23.60
2015,06,27,11,34,22.90
2015,06,27,11,35,22.30
2015,06,27,11,36,21.80
2015,06,27,11,37,21.40
2015,06,27,11,38,21.10
2015,06,27,11,39,20.80
2015,06,27,11,40,20.60
2015,06,27,11,41,20.50
2015,06,27,11,42,20.40
2015,06,27,11,43,20.30
2015,06,27,11,44,20.30
2015,06,27,11,45,20.30
2015,06,27,11,46,20.40
2015,06,27,11,47,20.60
2015,06,27,11,48,20.70
2015,06,27,11,49,20.80
2015,06,27,11,50,20.80
2015,06,27,11,51,20.80
2015,06,27,11,52,20.90
2015,06,27,11,53,20.90
2015,06,27,11,54,20.90
2015,06,27,11,55,20.90
2015,06,27,11,56,21.00
2015,06,27,11,57,21.00
2015,06,27,11,58,21.10
2015,06,27,11,59,21.10
2015,06,27,12,00,21.10
2015,06,27,12,01,21.10
2015,06,27,12,02,21.00
2015,06,27,12,03,20.90
2015,06,27,12,04,20.90
2015,06,27,12,05,20.90
2015,06,27,12,06,20.80
2015,06,27,12,07,20.80
2015,06,27,12,08,20.80
2015,06,27,12,09,20.80
2015,06,27,12,10,20.80
2015,06,27,12,11,20.80
2015,06,27,12,12,20.80
2015,06,27,12,13,20.80
2015,06,27,12,14,20.80
2015,06,27,12,15,20.70
2015,06,27,12,16,20.60
2015,06,27,12,17,20.50
2015,06,27,12,18,20.40
2015,06,27,12,19,20.30
2015,06,27,12,20,20.30
2015,06,27,12,21,20.30
2015,06,27,12,22,20.30
2015,06,27,12,23,20.40
2015,06,27,12,24,20.40
2015,06,27,12,25,20.40
2015,06,27,12,26,20.40
2015,06,27,12,27,20.30
2015,06,27,12,28,20.30
2015,06,27,12,29,20.30
2015,06,27,12,30,20.30
2015,06,27,12,31,20.30
2015,06,27,12,32,20.30
2015,06,27,12,33,20.30
2015,06,27,12,34,20.20
2015,06,27,12,35,20.20
2015,06,27,12,36,20.20
2015,06,27,12,37,20.20
2015,06,27,12,38,20.20
2015,06,27,12,39,20.20
2015,06,27,12,40,20.20
2015,06,27,12,41,20.20
2015,06,27,12,42,20.20
2015,06,27,12,43,20.10
2015,06,27,12,44,20.10
2015,06,27,12,45,20.10
2015,06,27,12,46,20.10
2015,06,27,12,47,20.20
2015,06,27,12,48,20.20
2015,06,27,12,49,20.20
2015,06,27,12,50,20.20
2015,06,27,12,51,20.20
2015,06,27,12,52,20.20
2015,06,27,12,53,20.20
2015,06,27,12,54,20.10
2015,06,27,12,55,20.00
2015,06,27,12,56,20.00
2015,06,27,12,57,20.10
2015,06,27,12,58,20.10
2015,06,27,12,59,20.10
2015,06,27,13,00,20.20
2015,06,27,13,01,20.30
2015,06,27,13,02,20.30
2015,06,27,13,03,20.40
2015,06,27,13,04,20.50
2015,06,27,13,05,20.50
2015,06,27,13,06,20.60
2015,06,27,13,07,20.60
2015,06,27,13,08,20.60
2015,06,27,13,09,20.60
2015,06,27,13,10,20.60
2015,06,27,13,11,20.60
2015,06,27,13,12,20.60
2015,06,27,13,13,20.70
2015,06,27,13,14,20.70
2015,06,27,13,15,20.70
2015,06,27,13,16,20.70
2015,06,27,13,17,20.70
2015,06,27,13,18,20.70
2015,06,27,13,19,20.60
2015,06,27,13,20,20.60
2015,06,27,13,21,20.60
2015,06,27,13,22,20.60
2015,06,27,13,23,20.70
2015,06,27,13,24,20.70
2015,06,27,13,25,20.70
2015,06,27,13,26,20.70
2015,06,27,13,27,20.80
2015,06,27,13,28,20.90
2015,06,27,13,29,21.00
2015,06,27,13,30,21.00
2015,06,27,13,31,21.10
2015,06,27,13,32,21.20
2015,06,27,13,33,21.30
2015,06,27,13,34,21.40
2015,06,27,13,35,21.50
2015,06,27,13,36,21.60
2015,06,27,13,37,21.80
2015,06,27,13,38,21.80
2015,06,27,13,39,21.80
2015,06,27,13,40,21.90
2015,06,27,13,41,21.90
2015,06,27,13,42,22.00
2015,06,27,13,43,22.00
2015,06,27,13,44,22.10
2015,06,27,13,45,22.20
2015,06,27,13,46,22.30
2015,06,27,13,47,22.30
2015,06,27,13,48,22.30
2015,06,27,13,49,22.30
2015,06,27,13,50,22.20
2015,06,27,13,51,22.10
2015,06,27,13,52,22.10
2015,06,27,13,53,22.10
2015,06,27,13,54,22.10
2015,06,27,13,55,22.10
2015,06,27,13,56,22.20
2015,06,27,13,57,22.20
2015,06,27,13,58,22.20
2015,06,27,13,59,22.20
2015,06,27,14,00,22.20
2015,06,27,14,01,22.20
2015,06,27,14,02,22.30
2015,06,27,14,03,22.30
2015,06,27,14,04,22.30
2015,06,27,14,05,22.30
2015,06,27,14,06,22.40
2015,06,27,14,07,22.40
2015,06,27,14,08,22.50
2015,06,27,14,09,22.50
2015,06,27,14,10,22.60
2015,06,27,14,11,22.70
2015,06,27,14,12,22.70
2015,06,27,14,13,22.80
2015,06,27,14,14,22.90
2015,06,27,14,15,22.90
2015,06,27,14,16,22.90
2015,06,27,14,17,23.00
2015,06,27,14,18,23.00
2015,06,27,14,19,22.90
2015,06,27,14,20,22.80
2015,06,27,14,21,22.70
2015,06,27,14,22,22.60
2015,06,27,14,23,22.60
2015,06,27,14,24,22.60
2015,06,27,14,25,22.70
2015,06,27,14,26,22.80
2015,06,27,14,27,22.90
2015,06,27,14,28,23.00
2015,06,27,14,29,23.10
2015,06,27,14,30,23.20
2015,06,27,14,31,23.30
2015,06,27,14,32,23.40
2015,06,27,14,33,23.50
2015,06,27,14,34,23.50
2015,06,27,14,35,23.50
2015,06,27,14,36,23.60
2015,06,27,14,37,23.60
2015,06,27,14,38,23.70
2015,06,27,14,39,23.90
2015,06,27,14,40,24.10
2015,06,27,14,41,24.20
2015,06,27,14,42,24.40
2015,06,27,14,43,24.50
2015,06,27,14,44,24.50
2015,06,27,14,45,24.60
2015,06,27,14,46,24.60
2015,06,27,14,47,24.60
2015,06,27,14,48,24.70
2015,06,27,14,49,24.70
2015,06,27,14,50,24.60
2015,06,27,14,51,24.60
2015,06,27,14,52,24.50
2015,06,27,14,53,24.40
2015,06,27,14,54,24.30
2015,06,27,14,55,24.20
2015,06,27,14,56,24.20
2015,06,27,14,57,24.20
2015,06,27,14,58,24.20
2015,06,27,14,59,24.20
2015,06,27,15,00,24.20
2015,06,27,15,01,24.20
2015,06,27,15,02,24.20
2015,06,27,15,03,24.10
2015,06,27,15,04,24.20
2015,06,27,15,05,24.30
2015,06,27,15,06,24.40
2015,06,27,15,07,24.60
2015,06,27,15,08,24.80
2015,06,27,15,09,24.90
2015,06,27,15,10,25.00
2015,06,27,15,11,25.20
2015,06,27,15,12,25.30
2015,06,27,15,13,25.40
2015,06,27,15,14,25.50
2015,06,27,15,15,25.60
2015,06,27,15,16,25.70
2015,06,27,15,17,25.70
2015,06,27,15,18,25.70
2015,06,27,15,19,25.70
2015,06,27,15,20,25.80
2015,06,27,15,21,25.80
2015,06,27,15,22,25.80
2015,06,27,15,23,25.90
2015,06,27,15,24,26.00
2015,06,27,15,25,26.10
2015,06,27,15,26,26.20
2015,06,27,15,27,26.40
2015,06,27,15,28,26.50
2015,06,27,15,29,26.60
2015,06,27,15,30,26.60
2015,06,27,15,31,26.60
2015,06,27,15,32,26.50
2015,06,27,15,33,26.40
2015,06,27,15,34,26.30
2015,06,27,15,35,26.30
2015,06,27,15,36,26.20
2015,06,27,15,37,26.20
2015,06,27,15,38,26.10
2015,06,27,15,39,26.10
2015,06,27,15,40,26.10
2015,06,27,15,41,26.20
2015,06,27,15,42,26.30
2015,06,27,15,43,26.40
2015,06,27,15,44,26.50
2015,06,27,15,45,26.60
2015,06,27,15,46,26.70
2015,06,27,15,47,26.80
2015,06,27,15,48,27.00
2015,06,27,15,49,27.10
2015,06,27,15,50,27.10
2015,06,27,15,51,27.00
2015,06,27,15,52,27.00
2015,06,27,15,53,27.00
2015,06,27,15,54,26.90
2015,06,27,15,55,27.00
2015,06,27,15,56,27.00
2015,06,27,15,57,27.10
2015,06,27,15,58,27.20
2015,06,27,15,59,27.20
2015,06,27,16,00,27.20
2015,06,27,16,01,27.20
2015,06,27,16,02,27.10
2015,06,27,16,03,27.10
2015,06,27,16,04,27.00
2015,06,27,16,05,27.00
2015,06,27,16,06,26.90
2015,06,27,16,07,26.90
2015,06,27,16,08,26.90
2015,06,27,16,09,26.80
2015,06,27,16,10,26.80
2015,06,27,16,11,26.90
2015,06,27,16,12,26.90
2015,06,27,16,13,27.00
2015,06,27,16,14,27.00
2015,06,27,16,15,26.90
2015,06,27,16,16,26.90
2015,06,27,16,17,26.80
2015,06,27,16,18,26.70
2015,06,27,16,19,26.60
2015,06,27,16,20,26.50
2015,06,27,16,21,26.30
2015,06,27,16,22,26.30
2015,06,27,16,23,26.20
2015,06,27,16,24,26.20
2015,06,27,16,25,26.20
2015,06,27,16,26,26.20
2015,06,27,16,27,26.20
2015,06,27,16,28,26.20
2015,06,27,16,29,26.20
2015,06,27,16,30,26.20
2015,06,27,16,31,26.20
2015,06,27,16,32,26.20
2015,06,27,16,33,26.20
2015,06,27,16,34,26.30
2015,06,27,16,35,26.40
2015,06,27,16,36,26.50
2015,06,27,16,37,26.70
2015,06,27,16,38,26.80
2015,06,27,16,39,26.90
2015,06,27,16,40,27.10
2015,06,27,16,41,27.10
2015,06,27,16,42,27.20
2015,06,27,16,43,27.20
2015,06,27,16,44,27.30
2015,06,27,16,45,27.30
2015,06,27,16,46,27.30
2015,06,27,16,47,27.30
2015,06,27,16,48,27.10
2015,06,27,16,49,26.60
2015,06,27,16,50,26.30
2015,06,27,16,51,25.90
2015,06,27,16,52,25.50
2015,06,27,16,53,25.20
2015,06,27,16,54,25.00
2015,06,27,16,55,24.80
2015,06,27,16,56,24.60
2015,06,27,16,57,24.50
2015,06,27,16,58,24.30
2015,06,27,16,59,24.20
2015,06,27,17,00,23.90
2015,06,27,17,01,23.70
2015,06,27,17,02,23.50
2015,06,27,17,03,23.40
2015,06,27,17,04,23.30
2015,06,27,17,05,23.20
2015,06,27,17,06,23.10
2015,06,27,17,07,23.10
2015,06,27,17,08,23.00
2015,06,27,17,09,23.00
2015,06,27,17,10,23.00
2015,06,27,17,11,22.90
2015,06,27,17,12,22.90
2015,06,27,17,13,22.80
2015,06,27,17,14,22.70
2015,06,27,17,15,22.60
2015,06,27,17,16,22.50
2015,06,27,17,17,22.40
2015,06,27,17,18,22.40
2015,06,27,17,19,22.30